EOK386 RKTU-RJOA

Flight info

Callsign EOK386
Flight time 0h 52m
Altitude 37000
Route BITUX A582 TGU V549 KPO G585 XZE V29 HGE
Aircraft A320/M-SDE2E3FGHIRWXY/LB1

Departure

Time 2026-05-04 05:52
Airport Cheongju International Airport/Cheongju Air Base (K-59/G-513) (RKTU)

Arrival

Time 2026-05-04 06:44
Airport Hiroshima Airport (RJOA)
Time Latitude Longitude Altitude Speed Heading
2026-05-04 05:43 36.72280 127.49917 191 ft 0 kts 323°
2026-05-04 05:45 36.72225 127.49970 190 ft 0 kts 336°
2026-05-04 05:45 36.72221 127.49970 190 ft 0 kts 34°
2026-05-04 05:47 36.72215 127.49962 190 ft 0 kts 52°
2026-05-04 05:49 36.72216 127.49963 190 ft 1 kts 52°
2026-05-04 05:51 36.72113 127.50462 189 ft 106 kts 231°
2026-05-04 05:51 36.71523 127.49532 209 ft 161 kts 236°
2026-05-04 05:52 36.70816 127.48424 813 ft 163 kts 237°
2026-05-04 05:52 36.70123 127.47345 1567 ft 162 kts 238°
2026-05-04 05:52 36.69421 127.46251 2196 ft 164 kts 238°
2026-05-04 05:52 36.68696 127.45101 2578 ft 179 kts 239°
2026-05-04 05:53 36.67874 127.43819 2967 ft 198 kts 233°
2026-05-04 05:54 36.59307 127.52284 7045 ft 300 kts 118°
2026-05-04 05:55 36.58243 127.54526 7894 ft 303 kts 117°
2026-05-04 05:55 36.57179 127.56776 8708 ft 307 kts 117°
2026-05-04 05:55 36.56086 127.59096 9527 ft 312 kts 116°
2026-05-04 05:55 36.54991 127.61417 10299 ft 317 kts 116°
2026-05-04 05:56 36.53842 127.63862 10799 ft 332 kts 116°
2026-05-04 05:56 36.52657 127.66386 11187 ft 350 kts 117°
2026-05-04 05:56 36.51382 127.69092 11607 ft 366 kts 117°
2026-05-04 05:56 36.50084 127.71835 12240 ft 373 kts 117°
2026-05-04 05:57 36.48740 127.74667 12898 ft 378 kts 117°
2026-05-04 05:57 36.47391 127.77511 13520 ft 384 kts 117°
2026-05-04 05:57 36.45982 127.80369 14145 ft 391 kts 122°
2026-05-04 05:57 36.44310 127.83085 14764 ft 398 kts 130°
2026-05-04 05:58 36.42385 127.85585 15402 ft 402 kts 135°
2026-05-04 05:58 36.40360 127.88020 16032 ft 406 kts 136°
2026-05-04 05:58 36.38372 127.90373 16646 ft 409 kts 137°
2026-05-04 05:58 36.36272 127.92878 17275 ft 412 kts 137°
2026-05-04 05:59 36.34198 127.95367 17859 ft 416 kts 137°
2026-05-04 05:59 36.32064 127.97938 18438 ft 420 kts 137°
2026-05-04 05:59 36.29977 128.00458 18980 ft 424 kts 137°
2026-05-04 05:59 36.27866 128.03008 19479 ft 428 kts 137°
2026-05-04 06:00 36.25690 128.05631 20019 ft 431 kts 138°
2026-05-04 06:00 36.23510 128.08255 20536 ft 435 kts 138°
2026-05-04 06:00 36.21336 128.10864 21004 ft 439 kts 139°
2026-05-04 06:00 36.19138 128.13509 21504 ft 442 kts 139°
2026-05-04 06:01 36.16901 128.16194 21976 ft 446 kts 140°
2026-05-04 06:01 36.14660 128.18877 22433 ft 450 kts 139°
2026-05-04 06:03 35.98573 128.38123 25548 ft 469 kts 141°
2026-05-04 06:03 35.96217 128.40930 25969 ft 471 kts 142°
2026-05-04 06:05 35.81758 128.62749 28567 ft 514 kts 95°
2026-05-04 06:05 35.82850 128.71382 29144 ft 517 kts 71°
2026-05-04 06:05 35.83870 128.75635 29344 ft 522 kts 71°
2026-05-04 06:06 35.84873 128.79942 29571 ft 526 kts 73°
2026-05-04 06:06 35.85798 128.84270 29834 ft 529 kts 74°
2026-05-04 06:06 35.86675 128.88672 30136 ft 531 kts 75°
2026-05-04 06:06 35.87509 128.93025 30361 ft 534 kts 76°
2026-05-04 06:07 35.88370 128.97583 30543 ft 538 kts 76°
2026-05-04 06:07 35.89223 129.02136 30749 ft 541 kts 76°
2026-05-04 06:07 35.90083 129.06696 30957 ft 545 kts 76°
2026-05-04 06:07 35.90950 129.11304 31159 ft 548 kts 76°
2026-05-04 06:08 35.91816 129.15920 31329 ft 552 kts 76°
2026-05-04 06:08 35.92693 129.20552 31492 ft 556 kts 77°
2026-05-04 06:08 35.93565 129.25177 31678 ft 559 kts 77°
2026-05-04 06:08 35.94444 129.29855 31837 ft 562 kts 77°
2026-05-04 06:09 35.95330 129.34615 32018 ft 566 kts 77°
2026-05-04 06:09 35.96137 129.39383 32296 ft 566 kts 81°
2026-05-04 06:11 35.94682 129.72972 33959 ft 560 kts 105°
2026-05-04 06:11 35.94093 129.77733 34212 ft 560 kts 105°
2026-05-04 06:13 35.90052 130.11116 35764 ft 559 kts 104°
2026-05-04 06:14 35.86479 130.39914 36938 ft 560 kts 104°
2026-05-04 06:14 35.85880 130.44670 36953 ft 564 kts 105°
2026-05-04 06:15 35.84647 130.54427 36958 ft 571 kts 104°
2026-05-04 06:15 35.83414 130.64178 36956 ft 573 kts 104°
2026-05-04 06:16 35.82116 130.73843 36961 ft 571 kts 108°
2026-05-04 06:16 35.80447 130.83377 36962 ft 568 kts 109°
2026-05-04 06:17 35.78719 130.92844 36959 ft 568 kts 110°
2026-05-04 06:17 35.77017 131.02235 36960 ft 567 kts 110°
2026-05-04 06:18 35.75313 131.11630 36960 ft 566 kts 110°
2026-05-04 06:20 35.68433 131.49225 36956 ft 569 kts 111°
2026-05-04 06:21 35.64077 131.72734 36959 ft 566 kts 112°
2026-05-04 06:22 35.62344 131.82022 36966 ft 554 kts 112°
2026-05-04 06:25 35.50299 132.45291 28870 ft 528 kts 114°
2026-05-04 06:25 35.49461 132.49580 28363 ft 525 kts 114°
2026-05-04 06:26 35.48609 132.53946 27762 ft 522 kts 113°
2026-05-04 06:26 35.47769 132.58231 27142 ft 520 kts 112°
2026-05-04 06:26 35.46936 132.62494 26524 ft 518 kts 111°
2026-05-04 06:26 35.46101 132.66782 25888 ft 516 kts 112°
2026-05-04 06:27 35.42696 132.83527 23347 ft 497 kts 120°
2026-05-04 06:28 35.41001 132.87003 22732 ft 466 kts 142°
2026-05-04 06:28 35.38618 132.89415 22097 ft 431 kts 165°
2026-05-04 06:28 35.35914 132.90514 21446 ft 393 kts 187°
2026-05-04 06:28 35.33338 132.90242 20783 ft 359 kts 209°
2026-05-04 06:29 35.31030 132.89153 20033 ft 358 kts 211°
2026-05-04 06:29 35.28610 132.88242 19388 ft 367 kts 205°
2026-05-04 06:29 35.26076 132.87590 18655 ft 377 kts 200°
2026-05-04 06:29 35.23475 132.87132 18011 ft 382 kts 197°
2026-05-04 06:30 35.20889 132.86787 17396 ft 386 kts 195°
2026-05-04 06:30 35.18093 132.86462 16782 ft 387 kts 194°
2026-05-04 06:30 35.15411 132.86162 16254 ft 385 kts 194°
2026-05-04 06:30 35.12754 132.85864 15778 ft 381 kts 194°
2026-05-04 06:31 35.10125 132.85564 15199 ft 381 kts 194°
2026-05-04 06:31 35.07516 132.85265 14667 ft 375 kts 194°
2026-05-04 06:31 35.04962 132.84976 13825 ft 372 kts 194°
2026-05-04 06:31 35.02360 132.84671 12955 ft 374 kts 193°
2026-05-04 06:32 34.99776 132.84375 12479 ft 368 kts 192°
2026-05-04 06:33 34.83497 132.87987 9993 ft 335 kts 145°
2026-05-04 06:34 34.81625 132.89653 9928 ft 320 kts 146°
2026-05-04 06:34 34.79824 132.91231 9611 ft 316 kts 146°
2026-05-04 06:34 34.78046 132.92764 9241 ft 315 kts 146°
2026-05-04 06:34 34.76253 132.94301 8864 ft 313 kts 147°
2026-05-04 06:35 34.74471 132.95818 8523 ft 310 kts 147°
2026-05-04 06:36 34.62504 133.05953 6201 ft 297 kts 146°
2026-05-04 06:37 34.60827 133.07371 5868 ft 295 kts 147°
2026-05-04 06:37 34.59153 133.08787 5558 ft 293 kts 147°
2026-05-04 06:37 34.57494 133.10185 5248 ft 291 kts 147°
2026-05-04 06:37 34.55848 133.11572 4917 ft 290 kts 147°
2026-05-04 06:38 34.54207 133.12950 4692 ft 283 kts 148°
2026-05-04 06:38 34.52488 133.13908 4638 ft 263 kts 173°
2026-05-04 06:40 34.43009 133.11911 4003 ft 150 kts 281°
2026-05-04 06:40 34.43190 133.10786 3780 ft 146 kts 284°
2026-05-04 06:40 34.43354 133.09525 3571 ft 144 kts 281°
2026-05-04 06:40 34.43451 133.08319 3370 ft 145 kts 278°
2026-05-04 06:41 34.43511 133.07108 3231 ft 144 kts 277°
2026-05-04 06:41 34.43544 133.05901 3059 ft 141 kts 276°
2026-05-04 06:41 34.43565 133.04709 2827 ft 142 kts 276°
2026-05-04 06:41 34.43580 133.03510 2628 ft 143 kts 274°
2026-05-04 06:42 34.43586 133.02306 2449 ft 144 kts 274°
2026-05-04 06:42 34.43593 133.01086 2248 ft 144 kts 273°
2026-05-04 06:42 34.43597 132.99876 2051 ft 143 kts 272°
2026-05-04 06:44 34.43602 132.91943 1075 ft 75 kts 271°
2026-05-04 06:44 34.43634 132.91539 1065 ft 28 kts 342°
2026-05-04 06:44 34.43762 132.91583 1073 ft 17 kts 73°
2026-05-04 06:45 34.43766 132.91719 1075 ft 15 kts 91°
2026-05-04 06:45 34.43771 132.91844 1079 ft 12 kts 57°
2026-05-04 06:45 34.43838 132.91853 1083 ft 7 kts
2026-05-04 06:45 34.43899 132.91853 1088 ft 1 kts 360°
2026-05-04 06:46 34.43905 132.91853 1088 ft 0 kts 359°